Regional Weather Roundup
Issued by NWS

Home | Current Version | Previous Version | Text Only | Print | Product List | Glossary On
Versions: 1 2 3 4 5 6 7 8 9 10 11 12 13 14 15 16 17 18 19 20 21 22 23 24 25 26 27 28 29 30 31 32 33 34 35 36 37 38 39 40 41 42 43 44 45 46 47 48 49 50
000
ASUS43 KFSD 301910
RWRSD

WEATHER ROUNDUP FOR SOUTH DAKOTA
NATIONAL WEATHER SERVICE SIOUX FALLS SD
200 PM CDT TUE JUN 30 2015

NOTE: "FAIR" INDICATES FEW OR NO CLOUDS BELOW 12,000 FEET WITH NO
SIGNIFICANT WEATHER AND/OR OBSTRUCTIONS TO VISIBILITY.


SDZ001>005-009-010-012>017-302000-
NORTHWEST AND NORTH CENTRAL SOUTH DAKOTA

CITY           SKY/WX    TMP DP  RH WIND       PRES   REMARKS
BUFFALO          N/A     80  66  62 E12       29.86S
FAITH            N/A     78  62  57 SE14G22   29.90S
MOBRIDGE       LGT RAIN  72  69  90 E13       29.89F
$$

SDZ012>016-024>037-041>051-057-063-072>074-302000-
SOUTHWEST AND SOUTH CENTRAL SOUTH DAKOTA

CITY           SKY/WX    TMP DP  RH WIND       PRES   REMARKS
RAPID CTY ARPT CLOUDY    82  66  58 SW7       29.91F
PIERRE         CLOUDY    76  66  71 E12       29.88S
CUSTER         MOSUNNY   83  48  29 W9G18     30.08F
ELLSWORTH AFB  PTSUNNY   82  61  49 VRB3      29.91S
PHILIP         CLOUDY    82  68  62 E8        29.87F
PINE RIDGE     CLOUDY    85  62  46 W3        29.94F
SPEARFISH      FAIR      84  61  45 NW13G18   29.97F
WINNER         FAIR      83  58  42 SE21      29.90S
$$

SDZ004>011-016>023-039-040-302000-
NORTHEAST SOUTH DAKOTA

CITY           SKY/WX    TMP DP  RH WIND       PRES   REMARKS
ABERDEEN       CLOUDY    73  66  78 N3        29.92F
WATERTOWN      CLOUDY    73  62  68 E8        29.95R
BROOKINGS      CLOUDY    75  64  69 E8        29.94F
SISSETON         N/A     70  59  68 SE7       29.93S
$$

SDZ017-020-022-023-036>040-048>070-302000-
SOUTHEAST SOUTH DAKOTA

CITY           SKY/WX    TMP DP  RH WIND       PRES   REMARKS
SIOUX FALLS    CLOUDY    74  64  71 SW7       29.92F
HURON          LGT RAIN  70  66  87 SE7       29.90F
CHAMBERLAIN    CLOUDY    75  65  69 SE13      29.91S
MITCHELL       LGT RAIN  71  69  93 S5        29.91F
YANKTON        CLOUDY    72  64  78 CALM      29.92S
$$

ABBREVIATIONS USED IN REMARKS
   TC - TEMPERATURE IN CELSIUS
  WCI - WIND CHILL INDEX
   HX - HEAT INDEX
  VSB - VISIBILITY



USA.gov is the U.S. government's official web portal to all federal, state and local government web resources and services.